EWG7HL EDDL-GCTS

Flight info

Callsign EWG7HL
Flight time 4h 37m
Altitude 24000
Route MODRU7Z MODRU Z283 LNO/N0453F360 DCT RASCA DCT FAMEN/N0452F350 DCT AHVEC UN857 DISAK DCT ARKIP DCT ARNAV/N0454F370 DCT LMG DCT UVELI DCT OSMOB DCT ARVID DCT PPN DCT NOLSA N857 VASUM DCT BANEV DCT BAN DCT GOTOR DCT KAMPO DCT MONTO DCT MOLIN DCT HIJ DCT OXACA DCT OSLEP N747 MINTA DCT AMSEL DCT IBALU UN857 TERTO
Aircraft A319/M-SDE3FGHIRWY/LB1

Departure

Time 2026-05-06 14:55
Airport Düsseldorf Airport (EDDL)

Arrival

Time 2026-05-06 19:32
Airport Tenerife Sur Airport (GCTS)
Time Latitude Longitude Altitude Speed Heading
2026-05-06 14:31 51.27624 6.75633 137 ft 0 kts 63°
2026-05-06 14:49 51.27624 6.75632 137 ft 2 kts 63°
2026-05-06 14:49 51.27612 6.75596 137 ft 4 kts 58°
2026-05-06 14:49 51.27596 6.75562 137 ft 4 kts 38°
2026-05-06 14:50 51.27577 6.75549 137 ft 3 kts 336°
2026-05-06 14:50 51.27574 6.75551 137 ft 0 kts 333°
2026-05-06 14:52 51.27580 6.75546 137 ft 3 kts 333°
2026-05-06 14:53 51.27616 6.75524 137 ft 8 kts 344°
2026-05-06 14:53 51.27686 6.75470 137 ft 13 kts 332°
2026-05-06 14:53 51.27763 6.75410 137 ft 12 kts 335°
2026-05-06 14:53 51.27851 6.75342 136 ft 17 kts 333°
2026-05-06 14:54 51.27960 6.75255 127 ft 15 kts 342°
2026-05-06 14:54 51.28020 6.75326 130 ft 0 kts 52°
2026-05-06 14:54 51.28055 6.75400 131 ft 33 kts 53°
2026-05-06 14:55 51.28334 6.75988 133 ft 99 kts 52°
2026-05-06 14:55 51.28885 6.77123 175 ft 153 kts 50°
2026-05-06 14:55 51.29504 6.78457 844 ft 149 kts 50°
2026-05-06 14:55 51.30133 6.79795 1467 ft 156 kts 50°
2026-05-06 14:56 51.30834 6.81263 1750 ft 175 kts 49°
2026-05-06 14:56 51.31615 6.82887 2088 ft 193 kts 50°
2026-05-06 14:56 51.32489 6.84700 2417 ft 219 kts 50°
2026-05-06 14:56 51.33457 6.86749 2866 ft 242 kts 51°
2026-05-06 14:57 51.34493 6.88975 3544 ft 253 kts 47°
2026-05-06 14:57 51.35928 6.90591 4314 ft 257 kts 18°
2026-05-06 14:57 51.37694 6.91068 5179 ft 259 kts
2026-05-06 14:57 51.39491 6.91470 5935 ft 267 kts
2026-05-06 14:58 51.41324 6.91972 6821 ft 269 kts
2026-05-06 14:58 51.43179 6.92518 7684 ft 272 kts 10°
2026-05-06 14:58 51.45073 6.93056 8554 ft 274 kts 10°
2026-05-06 14:58 51.46960 6.93317 9383 ft 279 kts 355°
2026-05-06 14:59 51.48824 6.92477 10201 ft 282 kts 334°
2026-05-06 14:59 51.50408 6.90530 10662 ft 300 kts 312°
2026-05-06 14:59 51.51422 6.87480 10867 ft 324 kts 290°
2026-05-06 14:59 51.52192 6.83963 11108 ft 344 kts 291°
2026-05-06 15:00 51.53039 6.80314 11656 ft 352 kts 292°
2026-05-06 15:00 51.53932 6.76616 12346 ft 355 kts 292°
2026-05-06 15:00 51.54796 6.72893 13024 ft 359 kts 287°
2026-05-06 15:00 51.55203 6.68885 13548 ft 368 kts 272°
2026-05-06 15:01 51.54967 6.64762 14108 ft 374 kts 258°
2026-05-06 15:01 51.54157 6.60774 14702 ft 376 kts 247°
2026-05-06 15:01 51.52972 6.57030 15346 ft 377 kts 243°
2026-05-06 15:01 51.51761 6.53294 16027 ft 378 kts 243°
2026-05-06 15:02 51.50546 6.49523 16674 ft 381 kts 243°
2026-05-06 15:02 51.49330 6.45738 17290 ft 383 kts 244°
2026-05-06 15:02 51.48102 6.41930 17895 ft 384 kts 243°
2026-05-06 15:02 51.46612 6.38364 18409 ft 388 kts 231°
2026-05-06 15:03 51.44683 6.35329 18867 ft 392 kts 219°
2026-05-06 15:03 51.42384 6.32955 19347 ft 396 kts 207°
2026-05-06 15:03 51.39826 6.31275 19842 ft 398 kts 201°
2026-05-06 15:03 51.37217 6.29745 20312 ft 401 kts 201°
2026-05-06 15:04 51.34590 6.28205 20772 ft 403 kts 201°
2026-05-06 15:04 51.31945 6.26653 21217 ft 406 kts 201°
2026-05-06 15:04 51.29287 6.25092 21685 ft 408 kts 201°
2026-05-06 15:04 51.26611 6.23516 22104 ft 411 kts 201°
2026-05-06 15:05 51.23917 6.21929 22520 ft 414 kts 201°
2026-05-06 15:05 51.21206 6.20339 22951 ft 416 kts 201°
2026-05-06 15:05 51.18480 6.18746 23383 ft 418 kts 201°
2026-05-06 15:05 51.15740 6.17152 23728 ft 421 kts 200°
2026-05-06 15:06 51.12980 6.15545 24077 ft 423 kts 201°
2026-05-06 15:06 51.10209 6.13928 24460 ft 424 kts 201°
2026-05-06 15:06 51.07434 6.12315 24837 ft 426 kts 200°
2026-05-06 15:06 51.04640 6.10696 25209 ft 428 kts 200°
2026-05-06 15:07 51.01874 6.08940 25574 ft 429 kts 206°
2026-05-06 15:07 50.99288 6.06582 25967 ft 429 kts 212°
2026-05-06 15:07 50.96753 6.04057 26318 ft 432 kts 212°
2026-05-06 15:07 50.94192 6.01526 26672 ft 433 kts 211°
2026-05-06 15:08 50.91592 5.99105 27040 ft 434 kts 209°
2026-05-06 15:08 50.88935 5.96805 27396 ft 436 kts 208°
2026-05-06 15:08 50.86237 5.94576 27709 ft 438 kts 207°
2026-05-06 15:08 50.83520 5.92366 28108 ft 439 kts 207°
2026-05-06 15:09 50.80836 5.90161 28417 ft 441 kts 207°
2026-05-06 15:09 50.78122 5.87877 28700 ft 444 kts 208°
2026-05-06 15:09 50.75400 5.85550 29017 ft 445 kts 208°
2026-05-06 15:09 50.72685 5.83197 29327 ft 446 kts 208°
2026-05-06 15:10 50.69955 5.80822 29631 ft 448 kts 208°
2026-05-06 15:10 50.67228 5.78453 30048 ft 447 kts 208°
2026-05-06 15:10 50.64509 5.76098 30434 ft 445 kts 208°
2026-05-06 15:10 50.61791 5.73750 30771 ft 445 kts 209°
2026-05-06 15:11 50.59222 5.71049 31129 ft 444 kts 218°
2026-05-06 15:11 50.56941 5.67781 31501 ft 444 kts 226°
2026-05-06 15:11 50.54942 5.64072 31852 ft 444 kts 230°
2026-05-06 15:11 50.52986 5.60329 32217 ft 443 kts 229°
2026-05-06 15:12 50.51030 5.56603 32599 ft 441 kts 229°
2026-05-06 15:12 50.49708 5.54088 32802 ft 442 kts 229°
2026-05-06 15:12 50.47752 5.50377 33130 ft 442 kts 229°
2026-05-06 15:12 50.45792 5.46661 33496 ft 441 kts 229°
2026-05-06 15:13 50.43863 5.43008 33852 ft 440 kts 229°
2026-05-06 15:13 50.41918 5.39318 34155 ft 439 kts 229°
2026-05-06 15:13 50.39969 5.35625 34441 ft 438 kts 229°
2026-05-06 15:13 50.38023 5.31951 34721 ft 438 kts 229°
2026-05-06 15:14 50.36076 5.28286 34998 ft 438 kts 229°
2026-05-06 15:14 50.34130 5.24625 35272 ft 437 kts 229°
2026-05-06 15:14 50.32181 5.20971 35535 ft 437 kts 229°
2026-05-06 15:14 50.30232 5.17321 35784 ft 437 kts 230°
2026-05-06 15:15 50.28286 5.13679 35872 ft 436 kts 230°
2026-05-06 15:15 50.24404 5.06419 35883 ft 434 kts 230°
2026-05-06 15:16 50.20519 4.99171 35887 ft 435 kts 229°
2026-05-06 15:16 50.16631 4.91943 35885 ft 435 kts 229°
2026-05-06 15:17 50.12733 4.84720 35883 ft 435 kts 229°
2026-05-06 15:17 50.08830 4.77503 35880 ft 435 kts 229°
2026-05-06 15:18 50.04917 4.70289 35880 ft 436 kts 229°
2026-05-06 15:18 50.01005 4.63092 35881 ft 436 kts 229°
2026-05-06 15:19 49.97078 4.55920 35879 ft 436 kts 228°
2026-05-06 15:19 49.92965 4.49001 35886 ft 436 kts 225°
2026-05-06 15:20 49.88730 4.42266 35886 ft 436 kts 225°
2026-05-06 15:20 49.84509 4.35523 35880 ft 436 kts 226°
2026-05-06 15:21 49.80317 4.28725 35878 ft 436 kts 226°
2026-05-06 15:21 49.76125 4.21928 35876 ft 436 kts 226°
2026-05-06 15:22 49.71933 4.15150 35875 ft 436 kts 226°
2026-05-06 15:22 49.67733 4.08381 35879 ft 436 kts 226°
2026-05-06 15:23 49.63518 4.01627 35876 ft 437 kts 226°
2026-05-06 15:23 49.59320 3.94918 35884 ft 437 kts 225°
2026-05-06 15:24 49.55085 3.88167 35888 ft 438 kts 226°
2026-05-06 15:24 49.50851 3.81425 35890 ft 438 kts 225°
2026-05-06 15:25 49.46614 3.74695 35895 ft 438 kts 225°
2026-05-06 15:25 49.42377 3.67968 35899 ft 438 kts 225°
2026-05-06 15:26 49.38131 3.61259 35897 ft 438 kts 225°
2026-05-06 15:26 49.33875 3.54577 35899 ft 437 kts 225°
2026-05-06 15:27 49.29623 3.47904 35891 ft 438 kts 225°
2026-05-06 15:27 49.25389 3.41262 35884 ft 438 kts 225°
2026-05-06 15:28 49.21128 3.34596 35892 ft 438 kts 225°
2026-05-06 15:28 49.16852 3.27938 35894 ft 439 kts 225°
2026-05-06 15:29 49.12568 3.21289 35895 ft 439 kts 225°
2026-05-06 15:29 49.08279 3.14644 35895 ft 438 kts 225°
2026-05-06 15:30 49.03994 3.08032 35902 ft 439 kts 225°
2026-05-06 15:30 48.99699 3.01409 35897 ft 439 kts 225°
2026-05-06 15:31 48.95406 2.94790 35899 ft 439 kts 225°
2026-05-06 15:31 48.91106 2.88194 35897 ft 439 kts 225°
2026-05-06 15:32 48.84641 2.78309 35909 ft 439 kts 225°
2026-05-06 15:32 48.80690 2.71273 35909 ft 439 kts 235°
2026-05-06 15:33 48.77238 2.63630 35907 ft 439 kts 235°
2026-05-06 15:33 48.73792 2.56058 35910 ft 439 kts 235°
2026-05-06 15:34 48.70313 2.48455 35916 ft 439 kts 235°
2026-05-06 15:34 48.66813 2.40816 35919 ft 439 kts 235°
2026-05-06 15:35 48.63350 2.33288 35912 ft 439 kts 235°
2026-05-06 15:35 48.59821 2.25759 35909 ft 439 kts 230°
2026-05-06 15:36 48.57673 2.22493 35905 ft 439 kts 219°
2026-05-06 15:36 48.55163 2.19873 35906 ft 439 kts 209°
2026-05-06 15:36 48.49415 2.16789 35898 ft 440 kts 192°
2026-05-06 15:37 48.43414 2.14865 35895 ft 441 kts 193°
2026-05-06 15:37 48.37411 2.12920 35892 ft 442 kts 193°
2026-05-06 15:38 48.31385 2.10990 35895 ft 443 kts 191°
2026-05-06 15:38 48.25235 2.10648 35897 ft 445 kts 174°
2026-05-06 15:39 48.19087 2.11965 35802 ft 448 kts 173°
2026-05-06 15:39 48.16002 2.12615 35556 ft 448 kts 173°
2026-05-06 15:39 48.12937 2.12895 35318 ft 446 kts 182°
2026-05-06 15:40 48.09849 2.12490 35084 ft 446 kts 189°
2026-05-06 15:40 48.06730 2.11877 34903 ft 446 kts 188°
2026-05-06 15:40 48.00612 2.10707 34943 ft 447 kts 188°
2026-05-06 15:41 47.94444 2.09536 34949 ft 447 kts 187°
2026-05-06 15:41 47.88269 2.08365 34951 ft 447 kts 188°
2026-05-06 15:42 47.82091 2.07186 34945 ft 447 kts 188°
2026-05-06 15:42 47.75910 2.06016 34919 ft 448 kts 188°
2026-05-06 15:43 47.69734 2.04850 34921 ft 447 kts 188°
2026-05-06 15:43 47.63572 2.03501 34916 ft 447 kts 194°
2026-05-06 15:44 47.57736 2.00398 34925 ft 445 kts 202°
2026-05-06 15:44 47.52714 1.97482 34920 ft 446 kts 202°
2026-05-06 15:45 47.46930 1.94145 34924 ft 446 kts 202°
2026-05-06 15:45 47.41149 1.90803 34929 ft 446 kts 202°
2026-05-06 15:46 47.35367 1.87469 34941 ft 446 kts 202°
2026-05-06 15:46 47.29585 1.84143 34943 ft 446 kts 202°
2026-05-06 15:47 47.23803 1.80830 34945 ft 446 kts 201°
2026-05-06 15:47 47.18013 1.77528 35051 ft 447 kts 201°
2026-05-06 15:48 47.15115 1.75893 35314 ft 445 kts 202°
2026-05-06 15:48 47.12216 1.74264 35576 ft 445 kts 202°
2026-05-06 15:48 47.09324 1.72637 35829 ft 445 kts 202°
2026-05-06 15:48 47.06436 1.71010 36099 ft 444 kts 202°
2026-05-06 15:49 47.03550 1.69388 36350 ft 444 kts 202°
2026-05-06 15:49 47.00664 1.67770 36571 ft 444 kts 202°
2026-05-06 15:49 46.97775 1.66155 36798 ft 444 kts 202°
2026-05-06 15:49 46.94888 1.64541 36925 ft 444 kts 202°
2026-05-06 15:50 46.89146 1.61329 36947 ft 445 kts 202°
2026-05-06 15:50 46.83360 1.58099 36951 ft 445 kts 202°
2026-05-06 15:51 46.77576 1.54875 36943 ft 445 kts 202°
2026-05-06 15:51 46.71784 1.51666 36948 ft 445 kts 202°
2026-05-06 15:52 46.65998 1.48466 36945 ft 445 kts 202°
2026-05-06 15:52 46.60201 1.45275 36938 ft 445 kts 202°
2026-05-06 15:53 46.55391 1.42623 36924 ft 445 kts 202°
2026-05-06 15:53 46.49597 1.39432 36931 ft 445 kts 202°
2026-05-06 15:54 46.43809 1.36255 36919 ft 444 kts 202°
2026-05-06 15:54 46.38025 1.33084 36916 ft 444 kts 202°
2026-05-06 15:55 46.32242 1.29921 36920 ft 445 kts 202°
2026-05-06 15:55 46.26445 1.26770 36916 ft 445 kts 202°
2026-05-06 15:56 46.20649 1.23626 36913 ft 445 kts 202°
2026-05-06 15:56 46.14858 1.20474 36913 ft 445 kts 202°
2026-05-06 15:57 46.09051 1.17334 36911 ft 445 kts 202°
2026-05-06 15:57 46.03251 1.14194 36906 ft 445 kts 202°
2026-05-06 15:58 45.97481 1.11085 36914 ft 446 kts 202°
2026-05-06 15:58 45.91630 1.07950 36914 ft 446 kts 202°
2026-05-06 15:59 45.85861 1.04858 36909 ft 445 kts 202°
2026-05-06 15:59 45.80339 1.00939 36909 ft 442 kts 217°
2026-05-06 16:00 45.75592 0.95363 36899 ft 441 kts 221°
2026-05-06 16:00 45.70889 0.89733 36895 ft 441 kts 221°
2026-05-06 16:01 45.66184 0.84110 36890 ft 441 kts 221°
2026-05-06 16:01 45.61471 0.78493 36894 ft 441 kts 221°
2026-05-06 16:02 45.56741 0.72881 36885 ft 441 kts 221°
2026-05-06 16:02 45.52013 0.67273 36897 ft 442 kts 221°
2026-05-06 16:03 45.47282 0.61679 36908 ft 442 kts 221°
2026-05-06 16:03 45.42541 0.56088 36912 ft 442 kts 221°
2026-05-06 16:04 45.37801 0.50496 36911 ft 442 kts 221°
2026-05-06 16:04 45.33061 0.44925 36919 ft 442 kts 221°
2026-05-06 16:05 45.28342 0.39401 36926 ft 442 kts 221°
2026-05-06 16:05 45.23601 0.33844 36925 ft 442 kts 221°
2026-05-06 16:06 45.18844 0.28289 36927 ft 443 kts 221°
2026-05-06 16:06 45.14088 0.22740 36939 ft 443 kts 221°
2026-05-06 16:07 45.09327 0.17205 36950 ft 443 kts 221°
2026-05-06 16:07 45.04554 0.11683 36956 ft 443 kts 221°
2026-05-06 16:08 44.99783 0.06166 36960 ft 443 kts 221°
2026-05-06 16:08 44.95013 0.00661 36962 ft 442 kts 221°
2026-05-06 16:09 44.90248 -0.04838 36970 ft 442 kts 221°
2026-05-06 16:09 44.85484 -0.10321 36966 ft 442 kts 221°
2026-05-06 16:10 44.80748 -0.15744 36964 ft 442 kts 221°
2026-05-06 16:10 44.75979 -0.21200 36976 ft 442 kts 221°
2026-05-06 16:11 44.71214 -0.26659 36974 ft 442 kts 221°
2026-05-06 16:11 44.66441 -0.32096 36973 ft 442 kts 221°
2026-05-06 16:12 44.61178 -0.36583 36969 ft 445 kts 210°
2026-05-06 16:12 44.55695 -0.40598 36974 ft 444 kts 210°
2026-05-06 16:13 44.50210 -0.44630 36972 ft 444 kts 210°
2026-05-06 16:13 44.44727 -0.48655 36978 ft 444 kts 210°
2026-05-06 16:14 44.39249 -0.52657 36972 ft 444 kts 210°
2026-05-06 16:14 44.33775 -0.56653 36980 ft 444 kts 210°
2026-05-06 16:15 44.28301 -0.60638 36985 ft 443 kts 210°
2026-05-06 16:15 44.22831 -0.64616 36990 ft 443 kts 210°
2026-05-06 16:16 44.17366 -0.68585 36996 ft 442 kts 210°
2026-05-06 16:16 44.11903 -0.72540 37003 ft 442 kts 210°
2026-05-06 16:17 44.06447 -0.76476 37005 ft 442 kts 210°
2026-05-06 16:17 44.00990 -0.80408 36995 ft 442 kts 210°
2026-05-06 16:18 43.95538 -0.84338 37002 ft 441 kts 210°
2026-05-06 16:18 43.90116 -0.88231 37008 ft 441 kts 210°
2026-05-06 16:19 43.84664 -0.92122 37010 ft 441 kts 210°
2026-05-06 16:19 43.79218 -0.96018 37004 ft 440 kts 210°
2026-05-06 16:20 43.73773 -0.99896 37006 ft 440 kts 210°
2026-05-06 16:20 43.68334 -1.03773 37011 ft 439 kts 210°
2026-05-06 16:21 43.62886 -1.07647 37011 ft 440 kts 210°
2026-05-06 16:21 43.57453 -1.11498 37022 ft 439 kts 210°
2026-05-06 16:22 43.52028 -1.15336 37023 ft 438 kts 210°
2026-05-06 16:22 43.46602 -1.19167 37024 ft 438 kts 210°
2026-05-06 16:23 43.41202 -1.22969 37012 ft 438 kts 210°
2026-05-06 16:23 43.35775 -1.26786 37030 ft 438 kts 210°
2026-05-06 16:24 43.30344 -1.30598 37032 ft 438 kts 210°
2026-05-06 16:24 43.24918 -1.34392 37034 ft 438 kts 210°
2026-05-06 16:25 43.19493 -1.38185 37034 ft 437 kts 210°
2026-05-06 16:25 43.14078 -1.41962 37034 ft 437 kts 210°
2026-05-06 16:26 43.08655 -1.45733 37028 ft 437 kts 210°
2026-05-06 16:26 43.03246 -1.49506 37027 ft 436 kts 210°
2026-05-06 16:27 42.97841 -1.53275 37007 ft 436 kts 210°
2026-05-06 16:27 42.92474 -1.56999 37020 ft 435 kts 210°
2026-05-06 16:28 42.87078 -1.60730 37012 ft 435 kts 210°
2026-05-06 16:28 42.81689 -1.64460 37011 ft 434 kts 210°
2026-05-06 16:29 42.76300 -1.68178 37011 ft 434 kts 210°
2026-05-06 16:29 42.70908 -1.71884 37011 ft 434 kts 210°
2026-05-06 16:30 42.66373 -1.74947 37011 ft 434 kts 210°
2026-05-06 16:30 42.60066 -1.79153 37010 ft 434 kts 209°
2026-05-06 16:31 42.54649 -1.82772 37006 ft 433 kts 210°
2026-05-06 16:31 42.49245 -1.86392 37005 ft 433 kts 210°
2026-05-06 16:32 42.43841 -1.90002 37002 ft 433 kts 210°
2026-05-06 16:32 42.38437 -1.93613 36974 ft 433 kts 210°
2026-05-06 16:33 42.33032 -1.97220 36987 ft 432 kts 210°
2026-05-06 16:34 42.24945 -2.02600 36992 ft 432 kts 210°
2026-05-06 16:34 42.19547 -2.06178 36993 ft 432 kts 209°
2026-05-06 16:35 42.14153 -2.09739 36988 ft 431 kts 209°
2026-05-06 16:35 42.08763 -2.13292 36991 ft 431 kts 209°
2026-05-06 16:36 42.03380 -2.16829 36993 ft 430 kts 209°
2026-05-06 16:36 41.98905 -2.19769 36989 ft 430 kts 209°
2026-05-06 16:37 41.93526 -2.23304 36979 ft 430 kts 209°
2026-05-06 16:37 41.88157 -2.26821 36984 ft 429 kts 209°
2026-05-06 16:38 41.82790 -2.30324 36980 ft 428 kts 209°
2026-05-06 16:38 41.77427 -2.33816 36972 ft 428 kts 209°
2026-05-06 16:39 41.72069 -2.37309 36961 ft 428 kts 209°
2026-05-06 16:39 41.66716 -2.40798 36965 ft 428 kts 209°
2026-05-06 16:40 41.61365 -2.44265 36960 ft 427 kts 209°
2026-05-06 16:40 41.56009 -2.47726 36954 ft 427 kts 209°
2026-05-06 16:41 41.50660 -2.51188 36940 ft 426 kts 209°
2026-05-06 16:41 41.45322 -2.54632 36948 ft 426 kts 209°
2026-05-06 16:42 41.40027 -2.58041 36950 ft 425 kts 209°
2026-05-06 16:42 41.34691 -2.61469 36950 ft 425 kts 209°
2026-05-06 16:43 41.29633 -2.65461 36938 ft 421 kts 218°
2026-05-06 16:43 41.24834 -2.69902 36943 ft 420 kts 218°
2026-05-06 16:44 41.20032 -2.74335 36943 ft 420 kts 218°
2026-05-06 16:44 41.15217 -2.78748 36944 ft 420 kts 217°
2026-05-06 16:45 41.10397 -2.83152 36941 ft 421 kts 217°
2026-05-06 16:45 41.05581 -2.87554 36942 ft 420 kts 217°
2026-05-06 16:46 41.00793 -2.91929 36948 ft 420 kts 217°
2026-05-06 16:46 40.95985 -2.96315 36940 ft 420 kts 217°
2026-05-06 16:47 40.91172 -3.00690 36942 ft 419 kts 217°
2026-05-06 16:47 40.86367 -3.05060 36931 ft 419 kts 217°
2026-05-06 16:48 40.81559 -3.09420 36941 ft 419 kts 217°
2026-05-06 16:48 40.76741 -3.13784 36941 ft 419 kts 217°
2026-05-06 16:49 40.71925 -3.18136 36935 ft 419 kts 217°
2026-05-06 16:49 40.67108 -3.22478 36947 ft 419 kts 217°
2026-05-06 16:50 40.62293 -3.26812 36940 ft 419 kts 217°
2026-05-06 16:50 40.57474 -3.31144 36928 ft 419 kts 217°
2026-05-06 16:51 40.52646 -3.35475 36935 ft 419 kts 217°
2026-05-06 16:51 40.49455 -3.38335 36939 ft 420 kts 217°
2026-05-06 16:52 40.42638 -3.44430 36931 ft 420 kts 217°
2026-05-06 16:52 40.37802 -3.48735 36928 ft 420 kts 217°
2026-05-06 16:53 40.32970 -3.53032 36927 ft 419 kts 217°
2026-05-06 16:53 40.28140 -3.57321 36933 ft 419 kts 217°
2026-05-06 16:54 40.23334 -3.61586 36933 ft 419 kts 217°
2026-05-06 16:54 40.18504 -3.65877 36917 ft 419 kts 217°
2026-05-06 16:55 40.13681 -3.70148 36930 ft 419 kts 217°
2026-05-06 16:55 40.08854 -3.74409 36930 ft 418 kts 217°
2026-05-06 16:56 40.04024 -3.78659 36925 ft 418 kts 217°
2026-05-06 16:56 39.99200 -3.82903 36928 ft 418 kts 217°
2026-05-06 16:57 39.94370 -3.87146 36912 ft 418 kts 217°
2026-05-06 16:57 39.89541 -3.91377 36921 ft 418 kts 217°
2026-05-06 16:58 39.85524 -3.94890 36922 ft 418 kts 217°
2026-05-06 16:58 39.80697 -3.99105 36924 ft 418 kts 217°
2026-05-06 16:59 39.70357 -4.08123 36916 ft 417 kts 217°
2026-05-06 17:00 39.65558 -4.12289 36916 ft 417 kts 217°
2026-05-06 17:00 39.60743 -4.16473 36921 ft 416 kts 217°
2026-05-06 17:01 39.55921 -4.20646 36919 ft 416 kts 217°
2026-05-06 17:01 39.51095 -4.24805 36918 ft 416 kts 217°
2026-05-06 17:02 39.46276 -4.28968 36909 ft 416 kts 217°
2026-05-06 17:02 39.41472 -4.33121 36915 ft 415 kts 217°
2026-05-06 17:03 39.36665 -4.37261 36916 ft 415 kts 217°
2026-05-06 17:03 39.31890 -4.41357 36916 ft 415 kts 217°
2026-05-06 17:04 39.27081 -4.45478 36907 ft 415 kts 217°
2026-05-06 17:04 39.22269 -4.49595 36906 ft 414 kts 217°
2026-05-06 17:05 39.17466 -4.53691 36909 ft 414 kts 217°
2026-05-06 17:05 39.12667 -4.57790 36912 ft 414 kts 217°
2026-05-06 17:06 39.07867 -4.61889 36895 ft 414 kts 217°
2026-05-06 17:06 39.03862 -4.65303 36899 ft 414 kts 216°
2026-05-06 17:07 38.99047 -4.69386 36887 ft 414 kts 216°
2026-05-06 17:07 38.94235 -4.73456 36894 ft 414 kts 216°
2026-05-06 17:08 38.89424 -4.77524 36897 ft 414 kts 216°
2026-05-06 17:08 38.84611 -4.81594 36895 ft 414 kts 216°
2026-05-06 17:09 38.79802 -4.85656 36894 ft 414 kts 216°
2026-05-06 17:09 38.74990 -4.89706 36891 ft 413 kts 216°
2026-05-06 17:10 38.70211 -4.93717 36889 ft 413 kts 216°
2026-05-06 17:10 38.65407 -4.97754 36892 ft 413 kts 216°
2026-05-06 17:11 38.60588 -5.01791 36882 ft 414 kts 216°
2026-05-06 17:11 38.55762 -5.05822 36875 ft 415 kts 216°
2026-05-06 17:12 38.51057 -5.10068 36863 ft 411 kts 225°
2026-05-06 17:12 38.47379 -5.15586 36876 ft 408 kts 233°
2026-05-06 17:13 38.43875 -5.21305 36881 ft 408 kts 233°
2026-05-06 17:13 38.40365 -5.27001 36884 ft 408 kts 233°
2026-05-06 17:14 38.36861 -5.32699 36884 ft 408 kts 233°
2026-05-06 17:14 38.33352 -5.38404 36872 ft 410 kts 233°
2026-05-06 17:15 38.29847 -5.44079 36858 ft 411 kts 233°
2026-05-06 17:15 38.26302 -5.49806 36862 ft 412 kts 233°
2026-05-06 17:16 38.22748 -5.55548 36859 ft 413 kts 233°
2026-05-06 17:16 38.19181 -5.61287 36863 ft 413 kts 233°
2026-05-06 17:17 38.15612 -5.67020 36868 ft 413 kts 233°
2026-05-06 17:17 38.12065 -5.72723 36864 ft 414 kts 234°
2026-05-06 17:18 38.08488 -5.78466 36862 ft 415 kts 234°
2026-05-06 17:18 38.04896 -5.84218 36855 ft 416 kts 233°
2026-05-06 17:19 38.01293 -5.89962 36847 ft 416 kts 233°
2026-05-06 17:19 37.97691 -5.95696 36860 ft 416 kts 233°
2026-05-06 17:20 37.94090 -6.01424 36862 ft 415 kts 233°
2026-05-06 17:20 37.90440 -6.07094 36866 ft 416 kts 232°
2026-05-06 17:21 37.86753 -6.12744 36861 ft 416 kts 233°
2026-05-06 17:21 37.83064 -6.18412 36855 ft 417 kts 233°
2026-05-06 17:22 37.79370 -6.24090 36860 ft 418 kts 233°
2026-05-06 17:22 37.75676 -6.29761 36849 ft 418 kts 233°
2026-05-06 17:23 37.71974 -6.35426 36855 ft 418 kts 233°
2026-05-06 17:23 37.68288 -6.41052 36866 ft 418 kts 233°
2026-05-06 17:24 37.64583 -6.46714 36873 ft 418 kts 233°
2026-05-06 17:24 37.60864 -6.52384 36875 ft 419 kts 233°
2026-05-06 17:25 37.57139 -6.58046 36875 ft 419 kts 233°
2026-05-06 17:25 37.53414 -6.63705 36876 ft 419 kts 233°
2026-05-06 17:26 37.49691 -6.69350 36871 ft 419 kts 232°
2026-05-06 17:26 37.45961 -6.74985 36879 ft 419 kts 232°
2026-05-06 17:27 37.42234 -6.80616 36886 ft 418 kts 232°
2026-05-06 17:27 37.38508 -6.86244 36895 ft 418 kts 232°
2026-05-06 17:28 37.34781 -6.91860 36892 ft 418 kts 232°
2026-05-06 17:28 37.31064 -6.97433 36894 ft 418 kts 232°
2026-05-06 17:29 37.27322 -7.03039 36894 ft 419 kts 232°
2026-05-06 17:29 37.23587 -7.08649 36884 ft 418 kts 232°
2026-05-06 17:30 37.19854 -7.14234 36896 ft 418 kts 232°
2026-05-06 17:30 37.16650 -7.20238 36895 ft 413 kts 248°
2026-05-06 17:31 37.15032 -7.27111 36896 ft 412 kts 257°
2026-05-06 17:31 37.13176 -7.33873 36888 ft 413 kts 241°
2026-05-06 17:31 37.11483 -7.36788 36886 ft 416 kts 229°
2026-05-06 17:32 37.09314 -7.39199 36893 ft 420 kts 218°
2026-05-06 17:32 37.06781 -7.40962 36890 ft 425 kts 206°
2026-05-06 17:32 37.03946 -7.42239 36886 ft 428 kts 203°
2026-05-06 17:33 36.99041 -7.44372 36869 ft 428 kts 203°
2026-05-06 17:33 36.93444 -7.46797 36879 ft 428 kts 203°
2026-05-06 17:34 36.87811 -7.49243 36891 ft 428 kts 203°
2026-05-06 17:34 36.82175 -7.51691 36894 ft 429 kts 203°
2026-05-06 17:35 36.76543 -7.54131 36901 ft 429 kts 203°
2026-05-06 17:35 36.70905 -7.56572 36892 ft 428 kts 203°
2026-05-06 17:36 36.62467 -7.60215 36914 ft 428 kts 203°
2026-05-06 17:36 36.56836 -7.62635 36929 ft 427 kts 203°
2026-05-06 17:37 36.51211 -7.65050 36928 ft 427 kts 203°
2026-05-06 17:37 36.45603 -7.67461 36912 ft 426 kts 203°
2026-05-06 17:38 36.40022 -7.69853 36930 ft 426 kts 203°
2026-05-06 17:38 36.34420 -7.72268 36929 ft 425 kts 206°
2026-05-06 17:39 36.29328 -7.75832 36932 ft 419 kts 215°
2026-05-06 17:39 36.24361 -7.79613 36912 ft 419 kts 215°
2026-05-06 17:40 36.19399 -7.83405 36929 ft 419 kts 215°
2026-05-06 17:40 36.14436 -7.87177 36934 ft 418 kts 215°
2026-05-06 17:41 36.09466 -7.90930 36938 ft 418 kts 215°
2026-05-06 17:41 36.04527 -7.94657 36943 ft 418 kts 215°
2026-05-06 17:42 35.99560 -7.98405 36943 ft 418 kts 215°
2026-05-06 17:42 35.94578 -8.02144 36924 ft 418 kts 215°
2026-05-06 17:43 35.89606 -8.05880 36938 ft 417 kts 215°
2026-05-06 17:43 35.84650 -8.09606 36942 ft 417 kts 215°
2026-05-06 17:44 35.79694 -8.13322 36951 ft 417 kts 215°
2026-05-06 17:44 35.74768 -8.17005 36947 ft 417 kts 215°
2026-05-06 17:45 35.69812 -8.20712 36949 ft 417 kts 215°
2026-05-06 17:45 35.64857 -8.24416 36949 ft 417 kts 215°
2026-05-06 17:46 35.59903 -8.28116 36951 ft 417 kts 215°
2026-05-06 17:46 35.54945 -8.31805 36956 ft 417 kts 214°
2026-05-06 17:47 35.49986 -8.35483 36968 ft 416 kts 214°
2026-05-06 17:47 35.45030 -8.39164 36937 ft 416 kts 214°
2026-05-06 17:48 35.40083 -8.42840 36951 ft 415 kts 214°
2026-05-06 17:48 35.35137 -8.46498 36956 ft 415 kts 214°
2026-05-06 17:49 35.30189 -8.50146 36960 ft 415 kts 214°
2026-05-06 17:49 35.25249 -8.53787 36962 ft 414 kts 214°
2026-05-06 17:50 35.21145 -8.56809 36964 ft 414 kts 214°
2026-05-06 17:50 35.15396 -8.61041 36952 ft 414 kts 214°
2026-05-06 17:51 35.11286 -8.64062 36957 ft 414 kts 214°
2026-05-06 17:51 35.06354 -8.67676 36963 ft 413 kts 214°
2026-05-06 17:52 35.01419 -8.71289 36966 ft 413 kts 214°
2026-05-06 17:52 34.96495 -8.74900 36969 ft 413 kts 214°
2026-05-06 17:53 34.91563 -8.78520 36942 ft 413 kts 214°
2026-05-06 17:53 34.86628 -8.82118 36957 ft 413 kts 214°
2026-05-06 17:54 34.81701 -8.85700 36962 ft 412 kts 214°
2026-05-06 17:54 34.76774 -8.89278 36964 ft 412 kts 214°
2026-05-06 17:55 34.71854 -8.92851 36968 ft 412 kts 214°
2026-05-06 17:55 34.66962 -8.96410 36967 ft 412 kts 214°
2026-05-06 17:56 34.62043 -8.99969 36950 ft 411 kts 214°
2026-05-06 17:56 34.57129 -9.03524 36964 ft 411 kts 214°
2026-05-06 17:57 34.52214 -9.07070 36965 ft 411 kts 214°
2026-05-06 17:57 34.47298 -9.10618 36968 ft 411 kts 214°
2026-05-06 17:58 34.42379 -9.14164 36963 ft 412 kts 214°
2026-05-06 17:58 34.37459 -9.17711 36942 ft 412 kts 214°
2026-05-06 17:59 34.32530 -9.21262 36948 ft 412 kts 214°
2026-05-06 17:59 34.27605 -9.24792 36959 ft 412 kts 214°
2026-05-06 18:00 34.22699 -9.28294 36963 ft 412 kts 214°
2026-05-06 18:00 34.17769 -9.31828 36969 ft 412 kts 214°
2026-05-06 18:01 34.12836 -9.35357 36970 ft 412 kts 214°
2026-05-06 18:01 34.07908 -9.38874 36957 ft 411 kts 214°
2026-05-06 18:02 34.02980 -9.42381 36967 ft 411 kts 214°
2026-05-06 18:02 33.98050 -9.45882 36972 ft 411 kts 214°
2026-05-06 18:03 33.93117 -9.49379 36960 ft 412 kts 214°
2026-05-06 18:03 33.88206 -9.52874 36955 ft 413 kts 214°
2026-05-06 18:04 33.83254 -9.56390 36928 ft 413 kts 214°
2026-05-06 18:04 33.78297 -9.59892 36946 ft 413 kts 214°
2026-05-06 18:05 33.73340 -9.63396 36957 ft 413 kts 214°
2026-05-06 18:05 33.68382 -9.66901 36963 ft 413 kts 214°
2026-05-06 18:06 33.63433 -9.70392 36972 ft 413 kts 214°
2026-05-06 18:06 33.58472 -9.73879 36973 ft 413 kts 214°
2026-05-06 18:07 33.53524 -9.77363 36965 ft 412 kts 214°
2026-05-06 18:07 33.48574 -9.80839 36969 ft 412 kts 214°
2026-05-06 18:08 33.43651 -9.84283 36962 ft 412 kts 214°
2026-05-06 18:08 33.38691 -9.87753 36952 ft 414 kts 214°
2026-05-06 18:09 33.33713 -9.91240 36959 ft 415 kts 214°
2026-05-06 18:09 33.28721 -9.94729 36950 ft 416 kts 214°
2026-05-06 18:10 33.23713 -9.98224 36955 ft 416 kts 214°
2026-05-06 18:10 33.19774 -10.00964 36963 ft 416 kts 214°
2026-05-06 18:11 33.14767 -10.04444 36970 ft 416 kts 214°
2026-05-06 18:11 33.09760 -10.07916 36977 ft 416 kts 214°
2026-05-06 18:12 33.04758 -10.11389 36975 ft 416 kts 214°
2026-05-06 18:12 32.99908 -10.15110 36981 ft 412 kts 221°
2026-05-06 18:13 32.95367 -10.19296 36981 ft 413 kts 221°
2026-05-06 18:13 32.90852 -10.23458 36964 ft 414 kts 221°
2026-05-06 18:14 32.86276 -10.27652 36958 ft 415 kts 221°
2026-05-06 18:14 32.81695 -10.31855 36962 ft 416 kts 221°
2026-05-06 18:15 32.77102 -10.36057 36965 ft 417 kts 221°
2026-05-06 18:15 32.72496 -10.40262 36969 ft 417 kts 221°
2026-05-06 18:16 32.67893 -10.44461 36967 ft 417 kts 221°
2026-05-06 18:16 32.63294 -10.48651 36977 ft 417 kts 221°
2026-05-06 18:17 32.58696 -10.52836 36978 ft 417 kts 221°
2026-05-06 18:17 32.54097 -10.57022 36985 ft 416 kts 221°
2026-05-06 18:18 32.49494 -10.61209 36964 ft 418 kts 221°
2026-05-06 18:18 32.44868 -10.65403 36957 ft 419 kts 221°
2026-05-06 18:19 32.40230 -10.69596 36956 ft 420 kts 221°
2026-05-06 18:19 32.35590 -10.73793 36968 ft 420 kts 221°
2026-05-06 18:20 32.30941 -10.77990 36971 ft 420 kts 221°
2026-05-06 18:20 32.26296 -10.82179 36975 ft 420 kts 221°
2026-05-06 18:21 32.21649 -10.86367 36978 ft 420 kts 221°
2026-05-06 18:21 32.16996 -10.90550 36981 ft 420 kts 221°
2026-05-06 18:22 32.12378 -10.94700 36964 ft 420 kts 221°
2026-05-06 18:22 32.07720 -10.98878 36961 ft 421 kts 221°
2026-05-06 18:23 32.03047 -11.03073 36967 ft 422 kts 221°
2026-05-06 18:23 31.98356 -11.07262 36970 ft 423 kts 221°
2026-05-06 18:24 31.93662 -11.11450 36973 ft 424 kts 221°
2026-05-06 18:24 31.88971 -11.15647 36972 ft 424 kts 221°
2026-05-06 18:25 31.84269 -11.19842 36964 ft 424 kts 220°
2026-05-06 18:25 31.79593 -11.24000 36981 ft 423 kts 220°
2026-05-06 18:26 31.74899 -11.28177 36989 ft 423 kts 220°
2026-05-06 18:26 31.70218 -11.32352 36968 ft 423 kts 221°
2026-05-06 18:27 31.65531 -11.36531 36967 ft 424 kts 221°
2026-05-06 18:27 31.60823 -11.40734 36971 ft 425 kts 221°
2026-05-06 18:28 31.56101 -11.44930 36969 ft 426 kts 221°
2026-05-06 18:28 31.51364 -11.49123 36955 ft 426 kts 221°
2026-05-06 18:29 31.46636 -11.53308 36971 ft 426 kts 220°
2026-05-06 18:29 31.41907 -11.57494 36973 ft 426 kts 220°
2026-05-06 18:30 31.37181 -11.61679 36980 ft 426 kts 221°
2026-05-06 18:30 31.32464 -11.65862 36981 ft 426 kts 221°
2026-05-06 18:31 31.27731 -11.70032 36975 ft 426 kts 220°
2026-05-06 18:31 31.23026 -11.74171 36958 ft 425 kts 220°
2026-05-06 18:32 31.18308 -11.78326 36974 ft 425 kts 220°
2026-05-06 18:32 31.13584 -11.82478 36978 ft 425 kts 220°
2026-05-06 18:33 31.08862 -11.86621 36981 ft 424 kts 220°
2026-05-06 18:33 31.04139 -11.90753 36985 ft 424 kts 220°
2026-05-06 18:34 30.99415 -11.94886 36984 ft 424 kts 220°
2026-05-06 18:34 30.94695 -11.99017 36968 ft 424 kts 220°
2026-05-06 18:35 30.89969 -12.03144 36983 ft 423 kts 220°
2026-05-06 18:35 30.85251 -12.07268 36971 ft 424 kts 220°
2026-05-06 18:36 30.80543 -12.11365 36971 ft 426 kts 220°
2026-05-06 18:36 30.75779 -12.15495 36974 ft 427 kts 220°
2026-05-06 18:37 30.71784 -12.18959 36980 ft 428 kts 220°
2026-05-06 18:37 30.66240 -12.23778 36964 ft 429 kts 220°
2026-05-06 18:38 30.61461 -12.27928 36975 ft 429 kts 220°
2026-05-06 18:38 30.57487 -12.31361 36982 ft 429 kts 220°
2026-05-06 18:39 30.52668 -12.35518 36990 ft 429 kts 220°
2026-05-06 18:40 30.45521 -12.41676 36988 ft 429 kts 220°
2026-05-06 18:40 30.40717 -12.45808 36981 ft 431 kts 220°
2026-05-06 18:41 30.35853 -12.49980 36984 ft 433 kts 220°
2026-05-06 18:41 30.31035 -12.54108 36979 ft 433 kts 220°
2026-05-06 18:42 30.26186 -12.58251 36989 ft 433 kts 220°
2026-05-06 18:42 30.21326 -12.62403 36995 ft 434 kts 220°
2026-05-06 18:43 30.16473 -12.66553 36998 ft 434 kts 220°
2026-05-06 18:43 30.11647 -12.70662 37001 ft 434 kts 220°
2026-05-06 18:44 30.06850 -12.74901 37004 ft 433 kts 223°
2026-05-06 18:44 30.02214 -12.79336 36990 ft 434 kts 224°
2026-05-06 18:45 29.97554 -12.83824 36995 ft 437 kts 223°
2026-05-06 18:45 29.92843 -12.88279 36996 ft 438 kts 223°
2026-05-06 18:46 29.88106 -12.92709 37004 ft 438 kts 223°
2026-05-06 18:46 29.83364 -12.97134 37009 ft 439 kts 223°
2026-05-06 18:47 29.78650 -13.01536 37008 ft 438 kts 223°
2026-05-06 18:47 29.73901 -13.05971 36992 ft 439 kts 223°
2026-05-06 18:48 29.69158 -13.10404 37006 ft 439 kts 223°
2026-05-06 18:48 29.64413 -13.14824 36997 ft 439 kts 223°
2026-05-06 18:49 29.59645 -13.19262 36995 ft 441 kts 223°
2026-05-06 18:49 29.54899 -13.23677 37001 ft 442 kts 223°
2026-05-06 18:50 29.50110 -13.28124 37005 ft 443 kts 223°
2026-05-06 18:50 29.45315 -13.32567 37008 ft 443 kts 223°
2026-05-06 18:51 29.40513 -13.37021 37006 ft 443 kts 223°
2026-05-06 18:51 29.35718 -13.41467 37019 ft 443 kts 223°
2026-05-06 18:52 29.30911 -13.45903 37020 ft 443 kts 223°
2026-05-06 18:52 29.26131 -13.50313 37003 ft 443 kts 223°
2026-05-06 18:53 29.21318 -13.54746 36991 ft 445 kts 223°
2026-05-06 18:53 29.16488 -13.59188 36996 ft 446 kts 223°
2026-05-06 18:54 29.11641 -13.63643 36982 ft 446 kts 223°
2026-05-06 18:54 29.06801 -13.68090 36986 ft 447 kts 223°
2026-05-06 18:55 29.01954 -13.72536 36987 ft 446 kts 223°
2026-05-06 18:55 28.97110 -13.76980 36992 ft 446 kts 223°
2026-05-06 18:56 28.92258 -13.81418 37001 ft 446 kts 223°
2026-05-06 18:56 28.87406 -13.85846 36990 ft 446 kts 223°
2026-05-06 18:57 28.82549 -13.90272 36995 ft 447 kts 223°
2026-05-06 18:57 28.77678 -13.94710 36986 ft 448 kts 223°
2026-05-06 18:58 28.72838 -13.99123 36992 ft 448 kts 223°
2026-05-06 18:58 28.67961 -14.03558 36995 ft 449 kts 223°
2026-05-06 18:59 28.63044 -14.08019 37003 ft 449 kts 223°
2026-05-06 18:59 28.58159 -14.12453 37001 ft 449 kts 223°
2026-05-06 19:00 28.53270 -14.16884 37002 ft 450 kts 223°
2026-05-06 19:00 28.48403 -14.21287 36990 ft 450 kts 222°
2026-05-06 19:01 28.43496 -14.25712 36995 ft 450 kts 223°
2026-05-06 19:01 28.38590 -14.30144 36999 ft 451 kts 223°
2026-05-06 19:02 28.33675 -14.34583 37004 ft 451 kts 223°
2026-05-06 19:02 28.28752 -14.39011 37011 ft 452 kts 222°
2026-05-06 19:03 28.23821 -14.43437 37010 ft 452 kts 222°
2026-05-06 19:03 28.18890 -14.47867 37012 ft 452 kts 222°
2026-05-06 19:04 28.13963 -14.52297 37020 ft 451 kts 222°
2026-05-06 19:04 28.09036 -14.56711 37023 ft 451 kts 222°
2026-05-06 19:05 28.04139 -14.61144 36993 ft 449 kts 227°
2026-05-06 19:05 28.00309 -14.66573 36994 ft 439 kts 245°
2026-05-06 19:06 27.98238 -14.72967 36994 ft 431 kts 260°
2026-05-06 19:06 27.96824 -14.79566 36997 ft 432 kts 260°
2026-05-06 19:07 27.95384 -14.86126 36999 ft 432 kts 259°
2026-05-06 19:07 27.93922 -14.92768 37001 ft 432 kts 259°
2026-05-06 19:08 27.92492 -14.99328 36986 ft 432 kts 260°
2026-05-06 19:08 27.91054 -15.05938 36991 ft 433 kts 260°
2026-05-06 19:09 27.89613 -15.12544 36993 ft 433 kts 260°
2026-05-06 19:09 27.88166 -15.19156 36998 ft 433 kts 260°
2026-05-06 19:10 27.86714 -15.25763 37001 ft 433 kts 260°
2026-05-06 19:10 27.85252 -15.32385 36544 ft 436 kts 260°
2026-05-06 19:10 27.84512 -15.35726 35795 ft 440 kts 260°
2026-05-06 19:11 27.83766 -15.39096 35055 ft 444 kts 260°
2026-05-06 19:11 27.83201 -15.42533 34241 ft 444 kts 268°
2026-05-06 19:11 27.83115 -15.46012 33293 ft 444 kts 277°
2026-05-06 19:11 27.83408 -15.49484 32391 ft 445 kts 279°
2026-05-06 19:12 27.83724 -15.52974 31410 ft 448 kts 279°
2026-05-06 19:12 27.84036 -15.56489 30423 ft 451 kts 279°
2026-05-06 19:12 27.84346 -15.60032 29227 ft 454 kts 279°
2026-05-06 19:12 27.84647 -15.63551 28517 ft 444 kts 279°
2026-05-06 19:13 27.84936 -15.66998 27875 ft 437 kts 279°
2026-05-06 19:13 27.85218 -15.70393 27211 ft 431 kts 279°
2026-05-06 19:13 27.85498 -15.73746 26538 ft 426 kts 279°
2026-05-06 19:13 27.85779 -15.77060 25883 ft 422 kts 279°
2026-05-06 19:14 27.86061 -15.80343 25234 ft 418 kts 278°
2026-05-06 19:14 27.86339 -15.83593 24586 ft 414 kts 278°
2026-05-06 19:14 27.86615 -15.86817 23945 ft 411 kts 278°
2026-05-06 19:14 27.86887 -15.90027 23253 ft 408 kts 278°
2026-05-06 19:15 27.87153 -15.93196 22614 ft 402 kts 278°
2026-05-06 19:15 27.87413 -15.96315 22015 ft 396 kts 278°
2026-05-06 19:15 27.87671 -15.99389 21435 ft 391 kts 277°
2026-05-06 19:15 27.87927 -16.02427 20874 ft 385 kts 277°
2026-05-06 19:16 27.88179 -16.05409 20336 ft 378 kts 277°
2026-05-06 19:16 27.88427 -16.08343 19817 ft 371 kts 277°
2026-05-06 19:16 27.88670 -16.11222 19318 ft 365 kts 277°
2026-05-06 19:16 27.88903 -16.14022 19136 ft 349 kts 277°
2026-05-06 19:17 27.89117 -16.16643 19026 ft 331 kts 277°
2026-05-06 19:17 27.89323 -16.19184 18769 ft 320 kts 277°
2026-05-06 19:17 27.89525 -16.21662 18489 ft 315 kts 277°
2026-05-06 19:17 27.89727 -16.24114 18253 ft 313 kts 276°
2026-05-06 19:18 27.89677 -16.26565 17986 ft 313 kts 264°
2026-05-06 19:18 27.89128 -16.28950 17718 ft 315 kts 251°
2026-05-06 19:18 27.88266 -16.31230 17435 ft 315 kts 249°
2026-05-06 19:18 27.87409 -16.33502 16981 ft 314 kts 250°
2026-05-06 19:19 27.86562 -16.35765 16496 ft 312 kts 250°
2026-05-06 19:19 27.85722 -16.38020 16013 ft 311 kts 250°
2026-05-06 19:19 27.84883 -16.40268 15537 ft 310 kts 250°
2026-05-06 19:19 27.84046 -16.42509 15061 ft 309 kts 250°
2026-05-06 19:20 27.83208 -16.44746 14620 ft 307 kts 249°
2026-05-06 19:20 27.82375 -16.46958 14160 ft 306 kts 249°
2026-05-06 19:20 27.81549 -16.49150 13786 ft 301 kts 249°
2026-05-06 19:20 27.80729 -16.51330 13283 ft 300 kts 249°
2026-05-06 19:21 27.79917 -16.53494 12749 ft 298 kts 249°
2026-05-06 19:21 27.79110 -16.55639 12259 ft 295 kts 249°
2026-05-06 19:21 27.78313 -16.57757 11782 ft 292 kts 250°
2026-05-06 19:21 27.77787 -16.59153 11455 ft 291 kts 250°
2026-05-06 19:22 27.76998 -16.61247 10978 ft 289 kts 249°
2026-05-06 19:22 27.76218 -16.63319 10667 ft 281 kts 250°
2026-05-06 19:22 27.75477 -16.65282 10542 ft 263 kts 250°
2026-05-06 19:22 27.74777 -16.67145 10276 ft 253 kts 252°
2026-05-06 19:23 27.74366 -16.69042 10096 ft 248 kts 268°
2026-05-06 19:23 27.74382 -16.70980 9921 ft 249 kts 280°
2026-05-06 19:23 27.74819 -16.72868 9614 ft 248 kts 294°
2026-05-06 19:23 27.75528 -16.74638 9340 ft 247 kts 296°
2026-05-06 19:24 27.76232 -16.76404 9062 ft 246 kts 295°
2026-05-06 19:24 27.76922 -16.78145 8800 ft 245 kts 295°
2026-05-06 19:24 27.77616 -16.79900 8539 ft 244 kts 296°
2026-05-06 19:24 27.78309 -16.81644 8275 ft 243 kts 296°
2026-05-06 19:25 27.79012 -16.83375 8005 ft 242 kts 298°
2026-05-06 19:25 27.80055 -16.84839 7632 ft 240 kts 327°
2026-05-06 19:25 27.81579 -16.85485 7261 ft 233 kts 356°
2026-05-06 19:25 27.83149 -16.85186 6902 ft 228 kts 19°
2026-05-06 19:26 27.84506 -16.84309 6564 ft 223 kts 34°
2026-05-06 19:26 27.85680 -16.83196 6222 ft 217 kts 40°
2026-05-06 19:26 27.86801 -16.82081 5875 ft 213 kts 37°
2026-05-06 19:26 27.87961 -16.81040 5550 ft 212 kts 37°
2026-05-06 19:27 27.89118 -16.80018 5237 ft 210 kts 37°
2026-05-06 19:27 27.90261 -16.78997 4910 ft 209 kts 36°
2026-05-06 19:27 27.91406 -16.77986 4584 ft 209 kts 37°
2026-05-06 19:27 27.92567 -16.76988 4251 ft 210 kts 36°
2026-05-06 19:28 27.93730 -16.75992 3925 ft 209 kts 36°
2026-05-06 19:28 27.94890 -16.74998 3600 ft 209 kts 36°
2026-05-06 19:28 27.96033 -16.74018 3282 ft 208 kts 36°
2026-05-06 19:28 27.97188 -16.73028 2954 ft 208 kts 36°
2026-05-06 19:29 27.98342 -16.72040 2630 ft 208 kts 36°
2026-05-06 19:29 27.99456 -16.71002 2371 ft 207 kts 48°
2026-05-06 19:29 28.00148 -16.69603 2181 ft 202 kts 67°
2026-05-06 19:29 28.00653 -16.68144 1921 ft 197 kts 66°
2026-05-06 19:30 28.01136 -16.66749 1659 ft 183 kts 67°
2026-05-06 19:30 28.01575 -16.65485 1438 ft 162 kts 65°
2026-05-06 19:30 28.01959 -16.64384 1243 ft 138 kts 68°
2026-05-06 19:30 28.02291 -16.63433 1051 ft 126 kts 68°
2026-05-06 19:31 28.02608 -16.62524 872 ft 124 kts 69°
2026-05-06 19:31 28.02920 -16.61632 691 ft 119 kts 69°
2026-05-06 19:31 28.03544 -16.59853 427 ft 121 kts 68°
2026-05-06 19:32 28.03847 -16.58976 278 ft 120 kts 69°
2026-05-06 19:32 28.04136 -16.58149 206 ft 99 kts 69°
2026-05-06 19:32 28.04338 -16.57557 203 ft 68 kts 68°
2026-05-06 19:32 28.04465 -16.57192 210 ft 30 kts 72°
2026-05-06 19:33 28.04581 -16.56975 205 ft 34 kts 51°
2026-05-06 19:33 28.04705 -16.56813 207 ft 20 kts 47°
2026-05-06 19:33 28.04784 -16.56815 206 ft 16 kts 270°
2026-05-06 19:33 28.04743 -16.56955 207 ft 21 kts 249°
2026-05-06 19:34 28.04692 -16.57098 212 ft 13 kts 245°
2026-05-06 19:34 28.04735 -16.57167 206 ft 11 kts 334°
2026-05-06 19:34 28.04761 -16.57230 208 ft 11 kts 238°
2026-05-06 19:34 28.04743 -16.57322 203 ft 14 kts 267°
2026-05-06 19:35 28.04712 -16.57434 202 ft 16 kts 248°
2026-05-06 19:35 28.04670 -16.57546 204 ft 10 kts 247°
2026-05-06 19:35 28.04673 -16.57601 211 ft 8 kts 307°
2026-05-06 19:35 28.04729 -16.57627 206 ft 8 kts 339°
2026-05-06 19:36 28.04738 -16.57631 211 ft 0 kts 339°